SAS456 EKCH-ENGM

Flight info

Callsign SAS456
Flight time 0h 50m
Altitude 40000
Route VEDAR DCT SABAK DCT LUNIP
Aircraft A359/H-SDE2E3GHIJ3J4J5LM1ORWXY/LB1D1

Departure

Time 2026-05-07 16:42
Airport Copenhagen Kastrup Airport (EKCH)

Arrival

Time 2026-05-07 17:32
Airport Oslo-Gardermoen International Airport (ENGM)
Time Latitude Longitude Altitude Speed Heading
2026-05-07 16:25 55.62419 12.64909 23 ft 0 kts 88°
2026-05-07 16:33 55.62418 12.64886 28 ft 4 kts 97°
2026-05-07 16:33 55.62425 12.64844 29 ft 4 kts 121°
2026-05-07 16:33 55.62441 12.64810 29 ft 4 kts 143°
2026-05-07 16:34 55.62462 12.64788 29 ft 4 kts 159°
2026-05-07 16:34 55.62486 12.64776 29 ft 4 kts 170°
2026-05-07 16:34 55.62511 12.64770 29 ft 4 kts 176°
2026-05-07 16:34 55.62537 12.64769 29 ft 4 kts 181°
2026-05-07 16:35 55.62561 12.64769 29 ft 2 kts 179°
2026-05-07 16:35 55.62562 12.64769 29 ft 0 kts 179°
2026-05-07 16:36 55.62561 12.64769 29 ft 1 kts 179°
2026-05-07 16:37 55.62530 12.64771 29 ft 7 kts 178°
2026-05-07 16:37 55.62467 12.64776 29 ft 11 kts 176°
2026-05-07 16:37 55.62370 12.64784 23 ft 15 kts 178°
2026-05-07 16:37 55.62260 12.64794 26 ft 17 kts 176°
2026-05-07 16:38 55.62148 12.64704 27 ft 19 kts 214°
2026-05-07 16:38 55.62027 12.64563 28 ft 22 kts 212°
2026-05-07 16:38 55.61886 12.64511 27 ft 22 kts 171°
2026-05-07 16:38 55.61736 12.64560 28 ft 18 kts 170°
2026-05-07 16:39 55.61632 12.64515 27 ft 17 kts 211°
2026-05-07 16:39 55.61524 12.64395 27 ft 20 kts 213°
2026-05-07 16:39 55.61400 12.64251 28 ft 23 kts 213°
2026-05-07 16:39 55.61259 12.64091 27 ft 25 kts 213°
2026-05-07 16:40 55.61103 12.63912 28 ft 28 kts 213°
2026-05-07 16:40 55.60948 12.63733 27 ft 23 kts 213°
2026-05-07 16:40 55.60838 12.63606 28 ft 13 kts 211°
2026-05-07 16:40 55.60770 12.63617 26 ft 11 kts 134°
2026-05-07 16:41 55.60714 12.63733 26 ft 14 kts 129°
2026-05-07 16:41 55.60685 12.63874 28 ft 12 kts 68°
2026-05-07 16:41 55.60793 12.64052 31 ft 47 kts 41°
2026-05-07 16:41 55.61245 12.64753 30 ft 122 kts 41°
2026-05-07 16:42 55.62037 12.65981 216 ft 167 kts 41°
2026-05-07 16:42 55.62857 12.67351 1189 ft 158 kts 44°
2026-05-07 16:42 55.63653 12.68789 1833 ft 174 kts 45°
2026-05-07 16:42 55.64632 12.70288 2175 ft 202 kts 25°
2026-05-07 16:43 55.66095 12.70674 2582 ft 227 kts 356°
2026-05-07 16:43 55.67704 12.70206 3273 ft 240 kts 345°
2026-05-07 16:43 55.69339 12.69352 4072 ft 249 kts 342°
2026-05-07 16:43 55.70972 12.68380 5006 ft 252 kts 341°
2026-05-07 16:44 55.72638 12.67331 5922 ft 255 kts 340°
2026-05-07 16:44 55.74313 12.66244 6907 ft 259 kts 340°
2026-05-07 16:44 55.76023 12.65119 7766 ft 266 kts 340°
2026-05-07 16:44 55.77770 12.63959 8719 ft 271 kts 341°
2026-05-07 16:45 55.79554 12.62769 9669 ft 277 kts 341°
2026-05-07 16:45 55.81375 12.61549 10529 ft 285 kts 341°
2026-05-07 16:45 55.83308 12.60255 10972 ft 308 kts 341°
2026-05-07 16:45 55.85388 12.58858 11401 ft 330 kts 340°
2026-05-07 16:46 55.87597 12.57372 11915 ft 347 kts 340°
2026-05-07 16:46 55.89875 12.55834 12723 ft 354 kts 339°
2026-05-07 16:46 55.92199 12.54264 13577 ft 359 kts 339°
2026-05-07 16:46 55.94546 12.52676 14422 ft 363 kts 338°
2026-05-07 16:47 55.96922 12.51067 15184 ft 368 kts 338°
2026-05-07 16:47 55.99326 12.49436 15959 ft 372 kts 338°
2026-05-07 16:47 56.01763 12.47782 16709 ft 377 kts 338°
2026-05-07 16:47 56.04228 12.46107 17510 ft 381 kts 338°
2026-05-07 16:48 56.06694 12.44428 18327 ft 386 kts 338°
2026-05-07 16:48 56.08502 12.43197 18860 ft 389 kts 338°
2026-05-07 16:48 56.10944 12.41530 19560 ft 393 kts 338°
2026-05-07 16:48 56.13082 12.40071 20176 ft 396 kts 338°
2026-05-07 16:49 56.15667 12.38303 20902 ft 400 kts 338°
2026-05-07 16:49 56.18285 12.36511 21627 ft 404 kts 338°
2026-05-07 16:49 56.20921 12.34703 22347 ft 408 kts 338°
2026-05-07 16:49 56.23593 12.32868 23085 ft 412 kts 338°
2026-05-07 16:50 56.26287 12.31015 23787 ft 416 kts 338°
2026-05-07 16:50 56.29003 12.29144 24372 ft 420 kts 338°
2026-05-07 16:50 56.31743 12.27254 24953 ft 424 kts 338°
2026-05-07 16:50 56.34510 12.25342 25548 ft 427 kts 338°
2026-05-07 16:51 56.37298 12.23413 26146 ft 431 kts 338°
2026-05-07 16:51 56.40107 12.21466 26733 ft 434 kts 338°
2026-05-07 16:51 56.42937 12.19501 27321 ft 438 kts 338°
2026-05-07 16:51 56.45792 12.17516 27897 ft 441 kts 338°
2026-05-07 16:52 56.48668 12.15513 28450 ft 445 kts 338°
2026-05-07 16:52 56.51578 12.13524 28984 ft 449 kts 340°
2026-05-07 16:52 56.54605 12.12038 29562 ft 452 kts 347°
2026-05-07 16:52 56.57706 12.10975 30111 ft 456 kts 349°
2026-05-07 16:53 56.60844 12.10050 30542 ft 459 kts 350°
2026-05-07 16:53 56.64013 12.09187 30993 ft 462 kts 350°
2026-05-07 16:53 56.67203 12.08338 31408 ft 464 kts 350°
2026-05-07 16:53 56.70406 12.07480 31816 ft 467 kts 350°
2026-05-07 16:54 56.73623 12.06602 32211 ft 469 kts 350°
2026-05-07 16:54 56.76816 12.05716 32587 ft 471 kts 350°
2026-05-07 16:54 56.80062 12.04804 32949 ft 473 kts 350°
2026-05-07 16:54 56.83320 12.03881 33367 ft 474 kts 349°
2026-05-07 16:55 56.86573 12.02956 33918 ft 472 kts 349°
2026-05-07 16:55 56.89810 12.02034 34406 ft 470 kts 349°
2026-05-07 16:55 56.93038 12.01112 34740 ft 471 kts 349°
2026-05-07 16:55 56.96282 12.00183 35022 ft 472 kts 349°
2026-05-07 16:56 56.99532 11.99251 35324 ft 473 kts 349°
2026-05-07 16:56 57.02791 11.98316 35615 ft 474 kts 349°
2026-05-07 16:56 57.09327 11.96437 36217 ft 476 kts 349°
2026-05-07 16:57 57.12598 11.95495 36523 ft 477 kts 348°
2026-05-07 16:57 57.15880 11.94547 36810 ft 477 kts 348°
2026-05-07 16:57 57.19163 11.93597 37081 ft 478 kts 348°
2026-05-07 16:57 57.22457 11.92642 37352 ft 479 kts 348°
2026-05-07 16:58 57.25753 11.91685 37626 ft 480 kts 348°
2026-05-07 16:58 57.29055 11.90725 37894 ft 481 kts 348°
2026-05-07 16:58 57.32364 11.89761 38161 ft 481 kts 348°
2026-05-07 16:58 57.35672 11.88795 38429 ft 482 kts 348°
2026-05-07 16:59 57.38986 11.87827 38689 ft 483 kts 348°
2026-05-07 16:59 57.42309 11.86853 38878 ft 484 kts 348°
2026-05-07 16:59 57.45638 11.85876 39111 ft 483 kts 348°
2026-05-07 16:59 57.48957 11.84901 39328 ft 483 kts 348°
2026-05-07 17:00 57.52282 11.83921 39471 ft 485 kts 348°
2026-05-07 17:00 57.55618 11.82936 39631 ft 486 kts 348°
2026-05-07 17:00 57.58955 11.81949 39808 ft 486 kts 348°
2026-05-07 17:00 57.62301 11.80958 39981 ft 487 kts 348°
2026-05-07 17:01 57.65648 11.79965 40125 ft 488 kts 348°
2026-05-07 17:01 57.69004 11.78967 40130 ft 488 kts 347°
2026-05-07 17:01 57.75667 11.76981 40130 ft 488 kts 347°
2026-05-07 17:02 57.82376 11.74973 40130 ft 488 kts 347°
2026-05-07 17:02 57.89087 11.72957 40127 ft 488 kts 347°
2026-05-07 17:03 57.95796 11.70934 39964 ft 487 kts 347°
2026-05-07 17:03 57.99142 11.69922 39738 ft 488 kts 347°
2026-05-07 17:03 58.02495 11.68906 39504 ft 488 kts 347°
2026-05-07 17:04 58.05848 11.67888 39271 ft 488 kts 347°
2026-05-07 17:04 58.09194 11.66871 39057 ft 487 kts 347°
2026-05-07 17:04 58.12541 11.65851 38842 ft 487 kts 347°
2026-05-07 17:04 58.15883 11.64831 38564 ft 486 kts 347°
2026-05-07 17:05 58.19221 11.63808 38288 ft 485 kts 347°
2026-05-07 17:05 58.22549 11.62759 38012 ft 484 kts 347°
2026-05-07 17:05 58.25865 11.61701 37734 ft 483 kts 347°
2026-05-07 17:05 58.29178 11.60643 37458 ft 482 kts 347°
2026-05-07 17:06 58.32468 11.59594 37213 ft 475 kts 347°
2026-05-07 17:06 58.35693 11.58568 36984 ft 464 kts 347°
2026-05-07 17:06 58.38855 11.57559 36481 ft 458 kts 347°
2026-05-07 17:06 58.41961 11.56565 35693 ft 447 kts 347°
2026-05-07 17:07 58.44990 11.55595 35005 ft 435 kts 347°
2026-05-07 17:07 58.47936 11.54650 34309 ft 425 kts 347°
2026-05-07 17:07 58.50832 11.53717 33540 ft 420 kts 346°
2026-05-07 17:07 58.53732 11.52776 32779 ft 425 kts 346°
2026-05-07 17:08 58.56656 11.51827 32012 ft 427 kts 346°
2026-05-07 17:08 58.59592 11.50875 31238 ft 430 kts 346°
2026-05-07 17:08 58.62551 11.49914 30435 ft 433 kts 346°
2026-05-07 17:08 58.65532 11.48945 29570 ft 436 kts 346°
2026-05-07 17:09 58.68515 11.47977 28922 ft 434 kts 346°
2026-05-07 17:09 58.71487 11.47012 28287 ft 432 kts 346°
2026-05-07 17:09 58.74440 11.46051 27688 ft 428 kts 346°
2026-05-07 17:09 58.77366 11.45097 27083 ft 425 kts 346°
2026-05-07 17:10 58.80267 11.44148 26493 ft 422 kts 346°
2026-05-07 17:10 58.83148 11.43204 26022 ft 417 kts 345°
2026-05-07 17:10 58.85970 11.42282 25768 ft 406 kts 345°
2026-05-07 17:10 58.88706 11.41388 25289 ft 391 kts 345°
2026-05-07 17:11 58.91373 11.40511 24306 ft 387 kts 345°
2026-05-07 17:11 58.93999 11.39641 23744 ft 381 kts 345°
2026-05-07 17:11 58.96633 11.38763 23637 ft 384 kts 345°
2026-05-07 17:11 58.99218 11.37906 23498 ft 381 kts 345°
2026-05-07 17:12 59.01823 11.37042 23324 ft 379 kts 345°
2026-05-07 17:12 59.04420 11.36179 23159 ft 379 kts 345°
2026-05-07 17:12 59.07014 11.35316 22980 ft 378 kts 345°
2026-05-07 17:12 59.09604 11.34452 22834 ft 377 kts 345°
2026-05-07 17:13 59.12187 11.33591 22665 ft 376 kts 345°
2026-05-07 17:13 59.14756 11.32733 22529 ft 373 kts 345°
2026-05-07 17:13 59.17286 11.32023 22334 ft 365 kts 351°
2026-05-07 17:13 59.19803 11.32485 22106 ft 365 kts
2026-05-07 17:14 59.21447 11.33392 21961 ft 360 kts 12°
2026-05-07 17:14 59.23809 11.34882 21690 ft 353 kts 12°
2026-05-07 17:14 59.26120 11.36367 21423 ft 347 kts 12°
2026-05-07 17:14 59.28455 11.37548 21387 ft 353 kts
2026-05-07 17:15 59.30973 11.37960 21359 ft 376 kts 357°
2026-05-07 17:15 59.33664 11.38006 21332 ft 392 kts 350°
2026-05-07 17:15 59.36311 11.37384 21266 ft 377 kts 351°
2026-05-07 17:15 59.38907 11.37551 21072 ft 369 kts 359°
2026-05-07 17:16 59.41465 11.37847 21035 ft 375 kts 357°
2026-05-07 17:16 59.44156 11.37925 20996 ft 400 kts 355°
2026-05-07 17:16 59.47020 11.37930 20941 ft 421 kts 355°
2026-05-07 17:16 59.49962 11.37966 20665 ft 420 kts 355°
2026-05-07 17:17 59.52865 11.38027 20095 ft 415 kts 356°
2026-05-07 17:17 59.55761 11.38080 19687 ft 418 kts 356°
2026-05-07 17:17 59.58638 11.38114 19290 ft 420 kts 356°
2026-05-07 17:17 59.61560 11.38136 18902 ft 419 kts 356°
2026-05-07 17:18 59.64468 11.38478 18389 ft 418 kts
2026-05-07 17:18 59.67322 11.39070 17428 ft 405 kts
2026-05-07 17:18 59.70108 11.39707 15871 ft 403 kts
2026-05-07 17:18 59.72925 11.40369 14692 ft 411 kts
2026-05-07 17:19 59.75735 11.41048 14229 ft 400 kts
2026-05-07 17:19 59.78447 11.41714 13939 ft 386 kts
2026-05-07 17:19 59.81062 11.42359 13650 ft 372 kts
2026-05-07 17:19 59.83558 11.42977 13293 ft 349 kts
2026-05-07 17:20 59.85886 11.43556 12875 ft 326 kts
2026-05-07 17:20 59.88064 11.44096 12448 ft 307 kts
2026-05-07 17:20 59.90154 11.44650 11771 ft 299 kts
2026-05-07 17:20 59.92123 11.45953 11076 ft 297 kts 22°
2026-05-07 17:21 59.93950 11.47758 10585 ft 287 kts 25°
2026-05-07 17:21 59.95676 11.49542 10190 ft 274 kts 25°
2026-05-07 17:21 59.97338 11.51269 9751 ft 263 kts 25°
2026-05-07 17:21 59.98941 11.52937 9492 ft 256 kts 25°
2026-05-07 17:22 60.00509 11.54562 9194 ft 252 kts 25°
2026-05-07 17:22 60.02063 11.56161 8846 ft 250 kts 25°
2026-05-07 17:22 60.03613 11.57739 8528 ft 249 kts 25°
2026-05-07 17:22 60.05154 11.59294 8195 ft 247 kts 25°
2026-05-07 17:23 60.06691 11.60828 7854 ft 246 kts 25°
2026-05-07 17:23 60.08260 11.62148 7523 ft 244 kts 17°
2026-05-07 17:23 60.09878 11.63146 7186 ft 243 kts 15°
2026-05-07 17:23 60.11476 11.64072 6911 ft 242 kts 15°
2026-05-07 17:24 60.13099 11.64997 6653 ft 242 kts 15°
2026-05-07 17:24 60.14721 11.65895 6407 ft 241 kts 15°
2026-05-07 17:24 60.16361 11.66760 6130 ft 240 kts 12°
2026-05-07 17:24 60.17996 11.67047 6016 ft 240 kts 358°
2026-05-07 17:25 60.19619 11.66388 6008 ft 239 kts 336°
2026-05-07 17:25 60.20932 11.64421 5889 ft 236 kts 311°
2026-05-07 17:25 60.21976 11.61870 5754 ft 236 kts 307°
2026-05-07 17:25 60.22974 11.59256 5618 ft 232 kts 307°
2026-05-07 17:26 60.23934 11.56727 5463 ft 223 kts 307°
2026-05-07 17:26 60.24829 11.54289 5408 ft 209 kts 303°
2026-05-07 17:26 60.25391 11.51721 5374 ft 194 kts 286°
2026-05-07 17:26 60.25725 11.49114 5190 ft 191 kts 283°
2026-05-07 17:27 60.26026 11.46484 4923 ft 190 kts 282°
2026-05-07 17:27 60.26316 11.43923 4621 ft 189 kts 283°
2026-05-07 17:27 60.26611 11.41350 4350 ft 190 kts 282°
2026-05-07 17:27 60.26910 11.38761 4083 ft 189 kts 283°
2026-05-07 17:28 60.27207 11.36186 3850 ft 188 kts 282°
2026-05-07 17:28 60.27502 11.33621 3605 ft 188 kts 283°
2026-05-07 17:28 60.27746 11.31045 3346 ft 187 kts 277°
2026-05-07 17:28 60.27806 11.28438 3100 ft 186 kts 268°
2026-05-07 17:29 60.27637 11.25858 2848 ft 186 kts 257°
2026-05-07 17:29 60.27252 11.23435 2603 ft 177 kts 246°
2026-05-07 17:29 60.26756 11.21263 2372 ft 164 kts 243°
2026-05-07 17:29 60.26270 11.19278 2161 ft 152 kts 242°
2026-05-07 17:30 60.25748 11.17526 1966 ft 140 kts 233°
2026-05-07 17:30 60.25119 11.16101 1805 ft 135 kts 221°
2026-05-07 17:30 60.24369 11.14980 1610 ft 135 kts 210°
2026-05-07 17:30 60.23522 11.14198 1448 ft 134 kts 198°
2026-05-07 17:31 60.22627 11.13667 1292 ft 134 kts 195°
2026-05-07 17:31 60.21722 11.13166 1104 ft 136 kts 195°
2026-05-07 17:31 60.20815 11.12648 898 ft 136 kts 195°
2026-05-07 17:31 60.19908 11.12134 728 ft 136 kts 197°
2026-05-07 17:32 60.19074 11.11646 690 ft 94 kts 196°
2026-05-07 17:32 60.18715 11.11437 693 ft 33 kts 196°
2026-05-07 17:32 60.18550 11.11324 691 ft 21 kts 206°
2026-05-07 17:32 60.18455 11.11182 688 ft 15 kts 233°
2026-05-07 17:33 60.18442 11.11007 688 ft 12 kts 281°
2026-05-07 17:33 60.18465 11.10843 688 ft 10 kts 286°
2026-05-07 17:33 60.18513 11.10759 685 ft 11 kts 353°
2026-05-07 17:33 60.18593 11.10799 687 ft 12 kts 18°
2026-05-07 17:34 60.18684 11.10856 690 ft 16 kts 17°
2026-05-07 17:34 60.18788 11.10916 687 ft 15 kts 16°
2026-05-07 17:34 60.18889 11.10976 690 ft 14 kts 17°
2026-05-07 17:34 60.18970 11.11022 691 ft 10 kts 16°
2026-05-07 17:35 60.19045 11.11066 691 ft 12 kts 16°
2026-05-07 17:35 60.19138 11.11119 690 ft 15 kts 16°
2026-05-07 17:35 60.19240 11.11178 698 ft 17 kts 15°
2026-05-07 17:35 60.19347 11.11238 688 ft 14 kts 16°
2026-05-07 17:36 60.19440 11.11291 691 ft 12 kts 13°
2026-05-07 17:36 60.19498 11.11217 689 ft 11 kts 290°
2026-05-07 17:36 60.19519 11.11046 691 ft 14 kts 284°
2026-05-07 17:36 60.19548 11.10842 692 ft 16 kts 286°
2026-05-07 17:37 60.19580 11.10623 690 ft 16 kts 286°
2026-05-07 17:37 60.19608 11.10465 691 ft 8 kts 307°
2026-05-07 17:37 60.19658 11.10429 690 ft 7 kts 327°
2026-05-07 17:37 60.19679 11.10333 689 ft 9 kts 287°
2026-05-07 17:38 60.19687 11.10280 691 ft 0 kts 287°